Location: George Washington National Forest Helicopter Landing Site
(38.6463°N, 79.0851°W)
Time: 03:57:36
(UTC-04:00)

Tiros 1 - Pass Details

Date: 30 August 2019
Orbit: 630 x 664 km, 48.4° (Epoch: 21 September)

Event Time Altitude Azimuth Distance (km) Brightness Sun altitude
Rises 22:53:44 0° 260° (W) 2,911 10.9 -32.1°
Reaches altitude 10° 22:56:10 10° 267° (W) 2,003 10.1 -32.4°
Enters shadow 22:58:09 23° 282° (WNW) 1,340 9.2 -32.6°
